Regional Weather Roundup
Issued by NWS

Home | Current Version | Previous Version | Graphics & Text | Print | Product List | Glossary On
Versions: 1 2 3 4 5 6 7 8 9 10 11 12 13 14 15 16 17 18 19 20 21 22 23 24 25 26 27 28 29 30 31 32 33 34 35 36 37 38 39 40 41 42 43 44 45 46 47 48 49 50
000
ASUS43 KFSD 260402
RWRSD

WEATHER ROUNDUP FOR SOUTH DAKOTA
NATIONAL WEATHER SERVICE SIOUX FALLS SD
1000 PM CST SUN JAN 25 2015

NOTE: "FAIR" INDICATES FEW OR NO CLOUDS BELOW 12,000 FEET WITH NO
SIGNIFICANT WEATHER AND/OR OBSTRUCTIONS TO VISIBILITY.


SDZ001>005-009-010-012>017-260500-
NORTHWEST AND NORTH CENTRAL SOUTH DAKOTA

CITY           SKY/WX    TMP DP  RH WIND       PRES   REMARKS
BUFFALO          N/A     40  33  76 W10       29.84F
FAITH            N/A     45  33  63 W17       29.87F
MOBRIDGE       CLOUDY    37  30  75 S7        29.82F
$$

SDZ012>016-024>037-041>051-057-063-072>074-260500-
SOUTHWEST AND SOUTH CENTRAL SOUTH DAKOTA

CITY           SKY/WX    TMP DP  RH WIND       PRES   REMARKS
RAPID CTY ARPT CLEAR     33  23  66 CALM      29.95S
PIERRE         MOCLDY    34  28  79 S3        29.89F
CUSTER         CLEAR     39  29  67 W6        30.03S
ELLSWORTH AFB  HAZE      46  32  57 NW14      29.94  VSB 1
PHILIP         CLEAR     36  23  59 W9        29.92S
PINE RIDGE     CLEAR     45  31  58 W13       30.01S
WINNER         FAIR      39  29  67 S9        29.94F
$$

SDZ004>011-016>023-039-040-260500-
NORTHEAST SOUTH DAKOTA

CITY           SKY/WX    TMP DP  RH WIND       PRES   REMARKS
ABERDEEN       MOCLDY    32  29  88 S12       29.90F WCI  23
WATERTOWN      CLOUDY    31  29  92 SW12      29.91F WCI  22
SISSETON         N/A     26  24  92 S8        29.89F WCI  18
$$

SDZ017-020-022-023-036>040-048>070-260500-
SOUTHEAST SOUTH DAKOTA

CITY           SKY/WX    TMP DP  RH WIND       PRES   REMARKS
SIOUX FALLS    CLOUDY    32  30  92 CALM      29.99F
HURON          PTCLDY    32  30  92 S9        29.95F WCI  24
MITCHELL       PTCLDY    32  31  96 S5        29.99S WCI  27
YANKTON        PTCLDY    32  30  93 S3        30.02F
$$

ABBREVIATIONS USED IN REMARKS
   TC - TEMPERATURE IN CELSIUS
  WCI - WIND CHILL INDEX
   HX - HEAT INDEX
  VSB - VISIBILITY



USA.gov is the U.S. government's official web portal to all federal, state and local government web resources and services.